Weather History for KTSP - December, 2013

Change the Weather History Date:

Thursday, December 26, 2013

  Actual Average Record
Temperature  
Mean Temperature 50 °F -  
Max Temperature 62 °F 49 °F 62 °F (2011)
Min Temperature 39 °F 31 °F 19 °F (2011)
Degree Days  
Heating Degree Days 14    
Moisture  
Dew Point 4 °F    
Average Humidity 16    
Maximum Humidity 24    
Minimum Humidity 9    
Precipitation  
Precipitation 0.00 in - - ()
Sea Level Pressure  
Sea Level Pressure 30.31 in    
Wind  
Wind Speed 11 mph (ESE)    
Max Wind Speed 22 mph    
Max Gust Speed 30 mph    
Visibility 10 miles    
Events      
Averages and records for this station are not official NWS values.
T = Trace of Precipitation, MM = Missing Value Source: NWS Daily Summary

Daily Weather History Graph

Daily Weather History Graph

Search for Another Location

Airport or City:

Trip Planner

Search our weather history database for the weather conditions in past years. The results will help you decide how hot, cold, wet, or windy it might be!

Date:

Astronomy

Dec. 26, 2013 Rise Set
Actual Time 7:00 AM PST 4:48 PM PST
Civil Twilight 6:32 AM PST 5:16 PM PST
Nautical Twilight 6:00 AM PST 5:48 PM PST
Astronomical Twilight 5:29 AM PST 6:19 PM PST
Moon 12:43 AM PST (12/26) 12:18 PM PST (12/26)
Length of Visible Light 10h 44m
Length of Day
9h 48m
Last Quarter, 37% of the Moon is Illuminated
Dec 26
Last Quarter
Jan 1
New
Jan 7
First Quarter
Jan 15
Full
Jan 23
Last Quarter

Hourly Weather History & Observations

Time (PST) Temp. Windchill Dew Point Humidity Pressure Visibility Wind Dir Wind Speed Gust Speed Precip Events Conditions
12:15 AM 44.6 °F 38.8 °F 8.6 °F 23% 30.34 in 10.0 mi East 11.5 mph - N/A   Clear
12:35 AM 44.6 °F 39.7 °F 6.8 °F 21% 30.33 in 10.0 mi East 9.2 mph - N/A   Clear
12:55 AM - - - N/A% - - North - - N/A   Unknown
1:15 AM 46.4 °F 41.1 °F 6.8 °F 20% 30.33 in 10.0 mi East 11.5 mph - N/A   Unknown
1:35 AM 46.4 °F 41.5 °F 6.8 °F 20% 30.32 in 10.0 mi East 10.4 mph - N/A   Clear
1:55 AM 46.4 °F 41.1 °F 6.8 °F 20% 30.32 in 10.0 mi East 11.5 mph - N/A   Clear
2:15 AM - - - N/A% - - North - - N/A   Unknown
2:35 AM 44.6 °F 38.8 °F 6.8 °F 21% 30.32 in 10.0 mi East 11.5 mph - N/A   Unknown
2:55 AM 46.4 °F 41.5 °F 6.8 °F 20% 30.32 in 10.0 mi ESE 10.4 mph - N/A   Clear
3:15 AM - - - N/A% - - North - - N/A   Unknown
3:35 AM 42.8 °F 37.0 °F 6.8 °F 23% 30.32 in 10.0 mi ESE 10.4 mph - N/A   Unknown
3:55 AM 41.0 °F 35.8 °F 6.8 °F 24% 30.32 in 10.0 mi ESE 8.1 mph - N/A   Clear
4:15 AM 41.0 °F 35.8 °F 6.8 °F 24% 30.32 in 10.0 mi East 8.1 mph - N/A   Clear
4:35 AM 41.0 °F 37.1 °F 6.8 °F 24% 30.31 in 10.0 mi ESE 5.8 mph - N/A   Clear
4:55 AM 41.0 °F 35.2 °F 6.8 °F 24% 30.31 in 10.0 mi ESE 9.2 mph - N/A   Clear
5:15 AM 42.8 °F 37.0 °F 6.8 °F 23% 30.31 in 10.0 mi East 10.4 mph - N/A   Clear
5:35 AM 41.0 °F 34.3 °F 6.8 °F 24% 30.31 in 10.0 mi East 11.5 mph - N/A   Clear
5:55 AM 44.6 °F 39.2 °F 6.8 °F 21% 30.31 in 10.0 mi ESE 10.4 mph - N/A   Clear
6:15 AM 44.6 °F 39.7 °F 6.8 °F 21% 30.31 in 10.0 mi East 9.2 mph 17.3 mph N/A   Clear
6:35 AM 42.8 °F 36.6 °F 6.8 °F 23% 30.31 in 10.0 mi East 11.5 mph - N/A   Clear
6:55 AM 42.8 °F 37.5 °F 6.8 °F 23% 30.32 in 10.0 mi East 9.2 mph - N/A   Clear
7:15 AM 41.0 °F 35.2 °F 6.8 °F 24% 30.33 in 10.0 mi East 9.2 mph - N/A   Clear
7:35 AM 44.6 °F 39.2 °F 5.0 °F 20% 30.33 in 9.0 mi East 10.4 mph - N/A   Clear
7:55 AM 46.4 °F 42.4 °F 6.8 °F 20% 30.33 in 9.0 mi East 8.1 mph - N/A   Clear
8:15 AM 48.2 °F - 6.8 °F 19% 30.34 in 10.0 mi East 10.4 mph - N/A   Clear
8:35 AM 50.0 °F - 6.8 °F 17% 30.35 in 8.0 mi ESE 9.2 mph - N/A   Clear
8:55 AM - - - N/A% - 8.0 mi North - - N/A   Unknown
9:15 AM 55.4 °F - 6.8 °F 14% 30.36 in 9.0 mi ESE 10.4 mph - N/A   Unknown
9:35 AM 55.4 °F - 5.0 °F 13% 30.35 in 9.0 mi SE 11.5 mph 19.6 mph N/A   Clear
9:55 AM 57.2 °F - 5.0 °F 12% 30.35 in 9.0 mi SE 15.0 mph - N/A   Clear
10:15 AM 57.2 °F - 6.8 °F 13% 30.35 in 9.0 mi SE 18.4 mph 26.5 mph N/A   Clear
10:35 AM 57.2 °F - 5.0 °F 12% 30.34 in 9.0 mi ESE 19.6 mph 24.2 mph N/A   Clear
10:55 AM 59.0 °F - 6.8 °F 13% 30.33 in 9.0 mi ESE 21.9 mph 29.9 mph N/A   Clear
11:15 AM 59.0 °F - 5.0 °F 12% 30.32 in 8.0 mi SE 17.3 mph 26.5 mph N/A   Clear
11:35 AM 59.0 °F - 5.0 °F 12% 30.31 in 8.0 mi SE 17.3 mph 24.2 mph N/A   Clear
11:55 AM 60.8 °F - 6.8 °F 12% 30.31 in 8.0 mi SE 16.1 mph 23.0 mph N/A   Clear
12:15 PM 60.8 °F - 5.0 °F 11% 30.30 in 7.0 mi SE 16.1 mph 20.7 mph N/A   Clear
12:35 PM 62.6 °F - 5.0 °F 10% 30.29 in 10.0 mi SE 15.0 mph 23.0 mph N/A   Clear
12:55 PM 62.6 °F - 3.2 °F 9% 30.28 in 9.0 mi SE 18.4 mph 23.0 mph N/A   Clear
1:15 PM 62.6 °F - 1.4 °F 9% 30.28 in 9.0 mi SE 16.1 mph 20.7 mph N/A   Clear
1:35 PM 62.6 °F - 5.0 °F 10% 30.28 in 10.0 mi ESE 13.8 mph 19.6 mph N/A   Clear
1:55 PM 60.8 °F - 5.0 °F 11% 30.27 in 10.0 mi SE 15.0 mph 21.9 mph N/A   Clear
2:15 PM 60.8 °F - 3.2 °F 10% 30.27 in 9.0 mi SE 15.0 mph 20.7 mph N/A   Clear
2:35 PM 62.6 °F - 1.4 °F 9% 30.27 in 10.0 mi SE 15.0 mph - N/A   Clear
2:55 PM 62.6 °F - 1.4 °F 9% 30.27 in 10.0 mi SE 15.0 mph 21.9 mph N/A   Clear
3:15 PM 60.8 °F - 1.4 °F 9% 30.27 in 10.0 mi SE 15.0 mph - N/A   Clear
3:35 PM 59.0 °F - -0.4 °F 9% 30.27 in 10.0 mi SE 15.0 mph 19.6 mph N/A   Clear
3:55 PM 59.0 °F - 1.4 °F 10% 30.27 in 10.0 mi SE 13.8 mph - N/A   Clear
4:15 PM 57.2 °F - -0.4 °F 10% 30.27 in 10.0 mi SE 16.1 mph - N/A   Clear
4:35 PM 55.4 °F - -0.4 °F 10% 30.28 in 10.0 mi SE 15.0 mph 20.7 mph N/A   Clear
4:55 PM - - - N/A% - - North - - N/A   Unknown
5:15 PM 53.6 °F - -0.4 °F 11% 30.29 in 10.0 mi East 9.2 mph - N/A   Unknown
5:35 PM 51.8 °F - -0.4 °F 12% 30.30 in 10.0 mi ESE 9.2 mph - N/A   Clear
5:55 PM 50.0 °F - -0.4 °F 13% 30.30 in 10.0 mi ESE 10.4 mph - N/A   Clear
6:15 PM 46.4 °F 41.5 °F 1.4 °F 16% 30.30 in 10.0 mi ESE 10.4 mph - N/A   Clear
6:35 PM 48.2 °F - 1.4 °F 15% 30.30 in 10.0 mi East 11.5 mph - N/A   Clear
6:55 PM 46.4 °F 41.9 °F 1.4 °F 16% 30.31 in 10.0 mi SE 9.2 mph - N/A   Clear
7:15 PM 44.6 °F 39.2 °F 1.4 °F 17% 30.31 in 10.0 mi East 10.4 mph - N/A   Clear
7:35 PM 46.4 °F 41.9 °F 1.4 °F 16% 30.31 in 10.0 mi ESE 9.2 mph - N/A   Clear
7:55 PM 46.4 °F - 1.4 °F 16% 30.31 in 10.0 mi North - - N/A   Clear
8:15 PM 39.2 °F 32.5 °F 3.2 °F 22% 30.31 in 10.0 mi SE 10.4 mph - N/A   Clear
8:35 PM 42.8 °F - 3.2 °F 19% 30.32 in 10.0 mi North - - N/A   Clear
8:55 PM 44.6 °F 39.2 °F 1.4 °F 17% 30.32 in 10.0 mi ESE 10.4 mph - N/A   Clear
9:15 PM 44.6 °F 39.7 °F 1.4 °F 17% 30.32 in 10.0 mi East 9.2 mph - N/A   Clear
9:35 PM 44.6 °F 39.7 °F 1.4 °F 17% 30.32 in 10.0 mi East 9.2 mph - N/A   Clear
9:55 PM 46.4 °F 41.5 °F 1.4 °F 16% 30.32 in 10.0 mi East 10.4 mph - N/A   Clear
10:15 PM 46.4 °F 41.9 °F 1.4 °F 16% 30.32 in 10.0 mi ESE 9.2 mph - N/A   Clear
10:35 PM 39.2 °F 34.2 °F 3.2 °F 22% 30.33 in 10.0 mi East 6.9 mph - N/A   Clear
10:55 PM 46.4 °F 41.9 °F -0.4 °F 14% 30.32 in 10.0 mi East 9.2 mph - N/A   Clear
11:15 PM 46.4 °F 41.9 °F -0.4 °F 14% 30.32 in 10.0 mi East 9.2 mph - N/A   Clear
11:35 PM 46.4 °F 41.9 °F -0.4 °F 14% 30.32 in 10.0 mi East 9.2 mph - N/A   Clear
11:55 PM 39.2 °F 34.2 °F 3.2 °F 22% 30.32 in 10.0 mi ESE 6.9 mph - N/A   Clear